Time,TemperatureF,DewpointF,PressureIn,WindDirection,WindDirectionDegrees,WindSpeedMPH,WindSpeedGustMPH,Humidity,HourlyPrecipIn,Conditions,Clouds,dailyrainin,SoftwareType,DateUTC
2013-08-22 00:12:00,69.4,68.0,30.15,ESE,103,0.0,-999.0,94,-99.99,,,0.00,weatherlink.com 1.10,2013-08-22 04:12:00,
2013-08-22 00:27:00,69.0,67.0,30.15,ESE,103,0.0,-999.0,94,-99.99,,,0.00,weatherlink.com 1.10,2013-08-22 04:27:00,
2013-08-22 00:54:00,69.0,67.0,30.15,ESE,103,0.0,-999.0,94,-99.99,,,0.00,weatherlink.com 1.10,2013-08-22 04:54:00,
2013-08-22 00:57:00,69.0,68.0,30.15,ESE,103,0.0,-999.0,95,-99.99,,,0.00,weatherlink.com 1.10,2013-08-22 04:57:00,
2013-08-22 01:12:00,68.7,67.0,30.16,ESE,103,0.0,-999.0,94,-99.99,,,0.00,weatherlink.com 1.10,2013-08-22 05:12:00,
2013-08-22 01:27:00,68.3,67.0,30.16,ESE,103,0.0,-999.0,95,-99.99,,,0.00,weatherlink.com 1.10,2013-08-22 05:27:00,
2013-08-22 01:54:00,68.4,67.0,30.16,ESE,103,0.0,-999.0,95,-99.99,,,0.00,weatherlink.com 1.10,2013-08-22 05:54:00,
2013-08-22 01:57:00,68.4,67.0,30.15,ESE,103,0.0,-999.0,95,-99.99,,,0.00,weatherlink.com 1.10,2013-08-22 05:57:00,
2013-08-22 02:12:00,68.6,68.0,30.15,ESE,103,0.0,-999.0,96,-99.99,,,0.00,weatherlink.com 1.10,2013-08-22 06:12:00,
2013-08-22 02:27:00,68.6,67.0,30.14,ESE,103,0.0,-999.0,95,-99.99,,,0.00,weatherlink.com 1.10,2013-08-22 06:27:00,
2013-08-22 02:55:00,68.3,67.0,30.13,ESE,103,0.0,-999.0,95,-99.99,,,0.00,weatherlink.com 1.10,2013-08-22 06:55:00,
2013-08-22 03:13:00,67.7,66.0,30.13,ESE,103,0.0,-999.0,95,-99.99,,,0.00,weatherlink.com 1.10,2013-08-22 07:13:00,
2013-08-22 03:28:00,67.4,66.0,30.12,ESE,103,0.0,-999.0,95,-99.99,,,0.00,weatherlink.com 1.10,2013-08-22 07:28:00,
2013-08-22 03:55:00,67.3,66.0,30.12,ESE,103,0.0,-999.0,95,-99.99,,,0.00,weatherlink.com 1.10,2013-08-22 07:55:00,
2013-08-22 04:13:00,67.0,66.0,30.13,ESE,103,0.0,-999.0,95,-99.99,,,0.00,weatherlink.com 1.10,2013-08-22 08:13:00,
2013-08-22 04:28:00,66.8,65.0,30.13,ESE,103,0.0,-999.0,95,-99.99,,,0.00,weatherlink.com 1.10,2013-08-22 08:28:00,
2013-08-22 04:54:00,66.7,65.0,30.13,ESE,103,0.0,-999.0,95,-99.99,,,0.00,weatherlink.com 1.10,2013-08-22 08:54:00,
2013-08-22 05:12:00,66.3,65.0,30.13,ESE,103,0.0,-999.0,95,-99.99,,,0.00,weatherlink.com 1.10,2013-08-22 09:12:00,
2013-08-22 05:27:00,66.2,65.0,30.13,ESE,103,0.0,-999.0,95,-99.99,,,0.00,weatherlink.com 1.10,2013-08-22 09:27:00,
2013-08-22 05:54:00,66.0,65.0,30.13,ESE,103,0.0,-999.0,96,-99.99,,,0.00,weatherlink.com 1.10,2013-08-22 09:54:00,
2013-08-22 06:12:00,66.0,65.0,30.13,ESE,103,0.0,-999.0,96,-99.99,,,0.00,weatherlink.com 1.10,2013-08-22 10:12:00,
2013-08-22 06:27:00,66.0,65.0,30.13,ESE,103,0.0,-999.0,96,-99.99,,,0.00,weatherlink.com 1.10,2013-08-22 10:27:00,
2013-08-22 08:27:00,70.4,69.0,30.16,ENE,74,0.0,-999.0,96,-99.99,,,0.00,weatherlink.com 1.10,2013-08-22 12:27:00,
2013-08-22 08:54:00,72.0,71.0,30.16,ENE,75,0.0,-999.0,97,-99.99,,,0.00,weatherlink.com 1.10,2013-08-22 12:54:00,
2013-08-22 09:12:00,73.7,73.0,30.15,SW,222,0.0,-999.0,96,-99.99,,,0.00,weatherlink.com 1.10,2013-08-22 13:12:00,
2013-08-22 09:27:00,74.9,73.0,30.15,SSW,207,4.0,-999.0,94,-99.99,,,0.00,weatherlink.com 1.10,2013-08-22 13:27:00,
2013-08-22 09:54:00,75.9,74.0,30.14,WSW,255,3.0,-999.0,92,-99.99,,,0.00,weatherlink.com 1.10,2013-08-22 13:54:00,
2013-08-22 10:12:00,77.0,73.0,30.16,WNW,283,4.0,-999.0,88,-99.99,,,0.00,weatherlink.com 1.10,2013-08-22 14:12:00,
2013-08-22 10:27:00,77.6,74.0,30.16,West,281,0.0,-999.0,87,-99.99,,,0.00,weatherlink.com 1.10,2013-08-22 14:27:00,
2013-08-22 10:55:00,78.2,74.0,30.15,West,279,2.0,-999.0,86,-99.99,,,0.00,weatherlink.com 1.10,2013-08-22 14:55:00,
2013-08-22 11:13:00,80.0,75.0,30.14,SW,225,0.0,-999.0,84,-99.99,,,0.00,weatherlink.com 1.10,2013-08-22 15:13:00,
2013-08-22 11:28:00,80.9,75.0,30.15,West,269,5.0,-999.0,81,-99.99,,,0.00,weatherlink.com 1.10,2013-08-22 15:28:00,
2013-08-22 11:55:00,80.7,74.0,30.14,West,277,3.0,-999.0,80,-99.99,,,0.01,weatherlink.com 1.10,2013-08-22 15:55:00,
2013-08-22 12:13:00,81.0,74.0,30.15,West,263,2.0,-999.0,79,-99.99,,,0.01,weatherlink.com 1.10,2013-08-22 16:13:00,
2013-08-22 12:28:00,81.5,73.0,30.15,WNW,291,2.0,-999.0,76,-99.99,,,0.01,weatherlink.com 1.10,2013-08-22 16:28:00,
2013-08-22 12:55:00,81.6,75.0,30.14,West,259,3.0,-999.0,80,-99.99,,,0.01,weatherlink.com 1.10,2013-08-22 16:55:00,
2013-08-22 13:13:00,82.4,73.0,30.13,West,273,2.0,-999.0,72,-99.99,,,0.01,weatherlink.com 1.10,2013-08-22 17:13:00,
2013-08-22 13:28:00,83.6,72.0,30.13,West,263,0.0,-999.0,69,-99.99,,,0.01,weatherlink.com 1.10,2013-08-22 17:28:00,
2013-08-22 13:55:00,83.9,74.0,30.12,NW,304,4.0,-999.0,72,-99.99,,,0.01,weatherlink.com 1.10,2013-08-22 17:55:00,
2013-08-22 14:13:00,85.5,72.0,30.12,West,277,7.0,-999.0,65,-99.99,,,0.01,weatherlink.com 1.10,2013-08-22 18:13:00,
2013-08-22 14:28:00,83.9,72.0,30.11,WNW,303,3.0,-999.0,68,-99.99,,,0.01,weatherlink.com 1.10,2013-08-22 18:28:00,
2013-08-22 14:55:00,81.5,73.0,30.10,NW,313,3.0,-999.0,76,-99.99,,,0.01,weatherlink.com 1.10,2013-08-22 18:55:00,
2013-08-22 15:13:00,84.8,72.0,30.10,NNW,334,6.0,-999.0,66,-99.99,,,0.01,weatherlink.com 1.10,2013-08-22 19:13:00,
2013-08-22 15:28:00,83.6,74.0,30.10,NNW,329,7.0,-999.0,73,-99.99,,,0.01,weatherlink.com 1.10,2013-08-22 19:28:00,
2013-08-22 15:55:00,83.6,75.0,30.08,WNW,301,2.0,-999.0,74,-99.99,,,0.01,weatherlink.com 1.10,2013-08-22 19:55:00,
2013-08-22 16:28:00,84.7,73.0,30.07,NW,313,5.0,-999.0,67,-99.99,,,0.01,weatherlink.com 1.10,2013-08-22 20:28:00,
2013-08-22 16:55:00,83.5,72.0,30.07,WNW,300,0.0,-999.0,69,-99.99,,,0.01,weatherlink.com 1.10,2013-08-22 20:55:00,
2013-08-22 17:13:00,82.7,74.0,30.07,NW,304,2.0,-999.0,74,-99.99,,,0.01,weatherlink.com 1.10,2013-08-22 21:13:00,
2013-08-22 17:28:00,81.1,73.0,30.07,NW,304,6.0,-999.0,75,-99.99,,,0.01,weatherlink.com 1.10,2013-08-22 21:28:00,
2013-08-22 17:55:00,80.8,72.0,30.06,NW,321,2.0,-999.0,74,-99.99,,,0.01,weatherlink.com 1.10,2013-08-22 21:55:00,
2013-08-22 18:13:00,82.1,72.0,30.05,NW,320,0.0,-999.0,71,-99.99,,,0.01,weatherlink.com 1.10,2013-08-22 22:13:00,
2013-08-22 18:28:00,82.7,72.0,30.05,NW,320,0.0,-999.0,71,-99.99,,,0.01,weatherlink.com 1.10,2013-08-22 22:28:00,
2013-08-22 18:55:00,83.0,73.0,30.05,NW,320,0.0,-999.0,71,-99.99,,,0.01,weatherlink.com 1.10,2013-08-22 22:55:00,
2013-08-22 19:13:00,82.9,74.0,30.05,NW,320,0.0,-999.0,75,-99.99,,,0.01,weatherlink.com 1.10,2013-08-22 23:13:00,
2013-08-22 19:28:00,82.0,74.0,30.05,NW,320,0.0,-999.0,76,-99.99,,,0.01,weatherlink.com 1.10,2013-08-22 23:28:00,
2013-08-22 19:55:00,80.8,74.0,30.05,NW,320,0.0,-999.0,80,-99.99,,,0.01,weatherlink.com 1.10,2013-08-22 23:55:00,
2013-08-22 20:13:00,78.4,73.0,30.05,NW,320,0.0,-999.0,83,-99.99,,,0.01,weatherlink.com 1.10,2013-08-23 00:13:00,
2013-08-22 20:28:00,77.3,73.0,30.06,NW,320,0.0,-999.0,86,-99.99,,,0.01,weatherlink.com 1.10,2013-08-23 00:28:00,
2013-08-22 20:51:00,76.2,73.0,30.06,NW,320,0.0,-999.0,88,-99.99,,,0.01,weatherlink.com 1.10,2013-08-23 00:51:00,
2013-08-22 20:58:00,75.3,72.0,30.06,NW,320,0.0,-999.0,89,-99.99,,,0.01,weatherlink.com 1.10,2013-08-23 00:58:00,
2013-08-22 21:13:00,74.4,71.0,30.06,NW,320,0.0,-999.0,90,-99.99,,,0.01,weatherlink.com 1.10,2013-08-23 01:13:00,
2013-08-22 21:34:00,74.0,71.0,30.06,NW,320,0.0,-999.0,91,-99.99,,,0.01,weatherlink.com 1.10,2013-08-23 01:34:00,
2013-08-22 21:43:00,73.3,71.0,30.06,NW,320,0.0,-999.0,91,-99.99,,,0.01,weatherlink.com 1.10,2013-08-23 01:43:00,
2013-08-22 21:58:00,72.7,70.0,30.06,NW,320,0.0,-999.0,92,-99.99,,,0.01,weatherlink.com 1.10,2013-08-23 01:58:00,
2013-08-22 22:13:00,72.3,70.0,30.05,NW,320,0.0,-999.0,93,-99.99,,,0.01,weatherlink.com 1.10,2013-08-23 02:13:00,
2013-08-22 22:37:00,72.2,70.0,30.06,NW,320,0.0,-999.0,93,-99.99,,,0.01,weatherlink.com 1.10,2013-08-23 02:37:00,
2013-08-22 22:43:00,72.0,70.0,30.06,NW,320,0.0,-999.0,93,-99.99,,,0.01,weatherlink.com 1.10,2013-08-23 02:43:00,
2013-08-22 22:58:00,71.7,70.0,30.05,NW,320,0.0,-999.0,94,-99.99,,,0.01,weatherlink.com 1.10,2013-08-23 02:58:00,
2013-08-22 23:13:00,71.5,70.0,30.06,NW,320,0.0,-999.0,94,-99.99,,,0.01,weatherlink.com 1.10,2013-08-23 03:13:00,
2013-08-22 23:35:00,71.5,70.0,30.06,NW,320,0.0,-999.0,94,-99.99,,,0.01,weatherlink.com 1.10,2013-08-23 03:35:00,
2013-08-22 23:43:00,71.7,70.0,30.07,NW,320,0.0,-999.0,94,-99.99,,,0.01,weatherlink.com 1.10,2013-08-23 03:43:00,
2013-08-22 23:58:00,71.8,70.0,30.06,NW,320,0.0,-999.0,94,-99.99,,,0.01,weatherlink.com 1.10,2013-08-23 03:58:00,